FW6820 Weather Reports


Display with metric or nautical units.
time (UTC)temp
F
wind
direction
speed
MPH
gust
MPH
rain 1hr
in
rain 24hr
in
rain mn
in
humidity
%
barometer
mb
20260901091548 82 153 5.0 13.0 0.00 0.00 0.00 82 1013.9
20260901090042 82 140 7.0 12.0 0.00 0.00 0.00 82 1013.9
20260901084540 82 122 7.0 12.0 0.00 0.00 0.00 81 1013.9
20260901083051 82 148 6.0 12.0 0.00 0.00 0.00 81 1014.0
20260901081545 82 128 8.0 11.0 0.00 0.00 0.00 81 1014.2
20260901080042 82 147 8.0 14.0 0.00 0.00 0.00 81 1014.1
20260901074542 83 142 6.0 12.0 0.00 0.00 0.00 81 1014.2
20260901073051 83 153 8.0 14.0 0.00 0.00 0.00 81 1014.1
20260901071544 83 153 9.0 13.0 0.00 0.00 0.00 80 1014.2
20260901070058 83 160 7.0 19.0 0.00 0.00 0.00 80 1014.3
20260901064545 83 155 8.0 15.0 0.00 0.00 0.00 80 1014.4
20260901063049 83 154 7.0 12.0 0.00 0.00 0.00 80 1014.4
20260901061543 83 133 6.0 12.0 0.00 0.00 0.00 80 1014.4
20260901060046 83 150 7.0 17.0 0.00 0.00 0.00 80 1014.6
20260901054542 83 158 5.0 12.0 0.00 0.00 0.00 80 1014.7
20260901053103 83 132 6.0 16.0 0.00 0.00 0.00 79 1014.6
20260901051551 84 125 9.0 15.0 0.00 0.00 0.00 79 1014.5
20260901050047 84 149 8.0 16.0 0.00 0.00 0.00 78 1014.6
20260901044556 84 132 9.0 13.0 0.00 0.00 0.00 77 1014.7
20260901043052 84 109 7.0 15.0 0.00 0.00 0.00 76 1014.9
20260901041550 84 121 6.0 15.0 0.00 0.00 0.00 75 1014.7
20260901040049 85 124 7.0 16.0 0.00 0.00 0.00 74 1014.6
20260901034544 85 134 11.0 23.0 0.00 0.00 0.00 73 1014.4
20260901033041 85 128 7.0 16.0 0.00 0.00 0.00 72 1014.1
20260901031551 86 130 6.0 18.0 0.00 0.00 0.00 71 1014.2
20260901030052 86 152 9.0 15.0 0.00 0.00 0.00 70 1014.1
20260901024543 87 129 10.0 19.0 0.00 0.00 0.00 69 1013.7
20260901023051 87 149 6.0 21.0 0.00 0.00 0.00 66 1013.2
20260901021549 88 113 8.0 24.0 0.00 0.00 0.00 64 1012.9
20260901020050 88 110 9.0 20.0 0.00 0.00 0.00 63 1012.6
20260901014549 89 138 11.0 20.0 0.00 0.00 0.00 61 1012.3
20260901013042 90 110 10.0 20.0 0.00 0.00 0.00 59 1012.1
20260901011553 91 119 10.0 23.0 0.00 0.00 0.00 57 1011.9
20260901010049 92 104 9.0 21.0 0.00 0.00 0.00 54 1011.8
20260901004545 93 110 9.0 29.0 0.00 0.00 0.00 52 1011.7
20260901003052 94 130 10.0 27.0 0.00 0.00 0.00 50 1011.5
20260901001550 95 117 9.0 23.0 0.00 0.00 0.00 48 1011.2
20260901000047 96 102 12.0 21.0 0.00 0.00 0.00 46 1011.1
20260831234540 97 139 15.0 24.0 0.00 0.00 0.00 41 1010.9
20260831233047 98 115 9.0 18.0 0.00 0.00 0.00 40 1010.7
20260831231542 98 121 7.0 21.0 0.00 0.00 0.00 42 1010.7
20260831230050 99 119 10.0 20.0 0.00 0.00 0.00 42 1010.9
20260831224551 99 133 8.0 19.0 0.00 0.00 0.00 41 1010.6
20260831223048 100 132 14.0 22.0 0.00 0.00 0.00 40 1010.7
20260831221543 100 115 9.0 22.0 0.00 0.00 0.00 38 1010.8
20260831220043 101 125 9.0 19.0 0.00 0.00 0.00 38 1010.8
20260831214605 101 139 9.0 21.0 0.00 0.00 0.00 38 1010.9
20260831213049 101 122 7.0 23.0 0.00 0.00 0.00 39 1011.0
20260831211544 101 149 11.0 22.0 0.00 0.00 0.00 39 1011.2
20260831210042 102 120 10.0 18.0 0.00 0.00 0.00 40 1011.4
20260831204542 101 143 6.0 17.0 0.00 0.00 0.00 40 1011.7
20260831203051 101 121 13.0 21.0 0.00 0.00 0.00 39 1012.0
20260831201544 102 132 7.0 18.0 0.00 0.00 0.00 35 1012.2
20260831200047 101 130 10.0 18.0 0.00 0.00 0.00 37 1012.4
20260831194549 100 117 10.0 19.0 0.00 0.00 0.00 38 1012.5
20260831193046 101 123 7.0 18.0 0.00 0.00 0.00 40 1012.7
20260831191542 100 129 10.0 17.0 0.00 0.00 0.00 41 1012.9
20260831190101 99 95 11.0 21.0 0.00 0.00 0.00 42 1013.0
20260831184555 98 131 12.0 20.0 0.00 0.00 0.00 43 1013.2
20260831183058 98 117 8.0 16.0 0.00 0.00 0.00 45 1013.6
20260831181547 98 126 9.0 22.0 0.00 0.00 0.00 46 1013.8
20260831180043 97 110 8.0 20.0 0.00 0.00 0.00 48 1014.0
20260831174548 96 131 10.0 19.0 0.00 0.00 0.00 51 1014.2
20260831173042 95 139 9.0 18.0 0.00 0.00 0.00 51 1014.3
20260831171552 94 158 12.0 20.0 0.00 0.00 0.00 53 1014.5
20260831170052 93 144 7.0 17.0 0.00 0.00 0.00 55 1014.4
20260831164559 92 131 8.0 19.0 0.00 0.00 0.00 57 1014.4
20260831163045 92 142 7.0 17.0 0.00 0.00 0.00 59 1014.6
20260831161554 91 112 10.0 17.0 0.00 0.00 0.00 59 1014.7
20260831160050 90 134 7.0 16.0 0.00 0.00 0.00 63 1014.8
20260831154619 89 360 10.0 17.0 0.00 0.00 0.00 65 1014.7
20260831153048 88 132 11.0 17.0 0.00 0.00 0.00 66 1014.7
20260831151542 87 134 8.0 16.0 0.00 0.00 0.00 69 1014.8
20260831150051 86 127 10.0 15.0 0.00 0.00 0.00 72 1014.7
20260831144551 85 106 8.0 14.0 0.00 0.00 0.00 73 1014.8
20260831143043 85 140 9.0 15.0 0.00 0.00 0.00 76 1014.6
20260831141544 84 109 8.0 15.0 0.00 0.00 0.00 78 1014.7
20260831140043 83 137 9.0 13.0 0.00 0.00 0.00 81 1014.5
20260831134543 82 127 7.0 12.0 0.00 0.00 0.00 82 1014.4
20260831133053 82 131 4.0 10.0 0.00 0.00 0.00 83 1014.1
20260831131547 82 111 4.0 10.0 0.00 0.00 0.00 83 1014.1
20260831130049 81 134 4.0 9.0 0.00 0.00 0.00 84 1014.1
20260831124549 81 140 3.0 10.0 0.00 0.00 0.00 83 1013.8
20260831123041 81 132 4.0 9.0 0.00 0.00 0.00 83 1013.6
20260831121550 82 157 5.0 10.0 0.00 0.00 0.00 82 1013.4
20260831120054 82 131 5.0 10.0 0.00 0.00 0.00 82 1013.3
20260831114544 82 127 7.0 12.0 0.00 0.00 0.00 82 1013.1
20260831113059 82 145 7.0 15.0 0.00 0.00 0.00 82 1013.1
20260831111548 82 141 7.0 14.0 0.00 0.00 0.00 82 1013.0
20260831110046 82 140 8.0 14.0 0.00 0.00 0.00 82 1013.2
20260831104544 82 136 7.0 13.0 0.00 0.00 0.00 82 1013.1
20260831103049 82 148 7.0 12.0 0.00 0.00 0.00 82 1013.1
20260831101546 83 138 6.0 14.0 0.00 0.00 0.00 82 1013.1
20260831100047 83 142 9.0 16.0 0.00 0.00 0.00 81 1013.2
20260831094553 83 136 8.0 15.0 0.00 0.00 0.00 81 1013.3
20260831093050 83 159 8.0 14.0 0.00 0.00 0.00 81 1013.3